User: anonymous   Login
Location: Unspecified
(0.0000°N, 0.0000°E)
Time: 23:15:28
(UTC+00:00)
Language:

YAOGAN-36 02C - Orbit

View from above orbital plane
View from above orbital plane
View from above satellite
View from above satellite

Ground track
Ground track

The orbit is defined by the following mean orbital elements,

1 54045U          26145.60923432 +.00000000 +00000-0 +51984-3 0 00008
2 54045  34.9893 221.1166 0006287   8.9059 351.1774 15.46947138    05
Epoch (UTC): 25 May 2026 14:37:17
Eccentricity: 0.0006287
inclination: 34.9893°
perigee height: 421 km
apogee height: 430 km
right ascension of ascending node: 221.1166°
argument of perigee: 8.9059°
revolutions per day: 15.46947138
mean anomaly at epoch: 351.1774°

The dashed part of the orbit path shows where the satellite is in the earth's shadow,  

DLR